{"data":{"norad_id":51647,"epoch":"2026-05-25T04:24:23.211072Z","epoch_age_seconds":49292,"freshness":"FRESH","line1":"1 51647U 22012AB  26145.18360198 -.00000542  00000+0 -15896-2 0  9997","line2":"2 51647  87.8849  40.8511 0001856  93.1380 266.9959 13.10370330206333","mean_motion":13.1037033,"eccentricity":0.0001856,"inclination_deg":87.8849,"raan_deg":40.8511,"arg_perigee_deg":93.138,"mean_anomaly_deg":266.9959,"bstar":-0.0015896,"rev_number":20633,"period_min":109.89259807187,"perigee_km":1220.3162320875,"apogee_km":1223.1373015178,"semimajor_km":7599.8637668026,"source":"CELESTRAK","updated_at":"2026-05-25T13:38:22.581594Z"}}